Tracking 25710 objects as of 6-Jul-2022
HD Live streaming from Space Station
objects crossing your sky now

FOSSASAT2E5

Track FOSSASAT2E5 now!
10-day predictions
FOSSASAT2E5 is classified as:


NORAD ID: 51001
Int'l Code: 2022-002T
Perigee: 507.8 km
Apogee: 524.1 km
Inclination: 97.5 °
Period: 94.8 minutes
Semi major axis: 6886 km
RCS: Unknown
Launch date: January 13, 2022
Source: South Africa (SAFR)
Launch site: AIR FORCE EASTERN TEST RANGE (AFETR)

Uplink (MHz):
Downlink (MHz): 401.700
Beacon (MHz):
Mode: 9600bps GFSK 125k LoRa
Call sign:
Status: Unknown

aabbcc
Your satellite tracking list
Your tracking list is empty




NASA's NSSDC Master Catalog

Two Line Element Set (TLE):
1 51001U 22002T   22187.15350284  .00008857  00000-0  42537-3 0  9993
2 51001  97.4885 254.6965 0011853   4.7203 355.4141 15.19018832 26291
Source of the keplerian elements: AFSPC